Time,TemperatureF,DewpointF,PressureIn,WindDirection,WindDirectionDegrees,WindSpeedMPH,WindSpeedGustMPH,Humidity,HourlyPrecipIn,Conditions,Clouds,dailyrainin,SoftwareType,DateUTC
2013-11-23 00:22:00,36.0,29.0,29.73,South,186,1.0,7.0,77,0.00,,,0.00,,2013-11-23 05:22:00,
2013-11-23 00:42:00,35.0,30.0,29.73,WSW,239,4.0,7.0,81,0.00,,,0.00,,2013-11-23 05:42:00,
2013-11-23 00:53:00,36.0,31.0,29.72,SW,223,2.0,6.0,82,0.00,,,0.00,,2013-11-23 05:53:00,
2013-11-23 01:22:00,38.0,34.0,29.72,SSW,198,6.0,11.0,84,0.00,,,0.00,,2013-11-23 06:22:00,
2013-11-23 01:42:00,38.0,33.0,29.72,WSW,243,8.0,14.0,82,0.00,,,0.00,,2013-11-23 06:42:00,
2013-11-23 01:53:00,38.0,34.0,29.72,SW,217,6.0,12.0,84,0.00,,,0.00,,2013-11-23 06:53:00,
2013-11-23 02:22:00,38.0,35.0,29.70,SSW,207,4.0,9.0,90,0.01,,,0.01,,2013-11-23 07:22:00,
2013-11-23 02:42:00,38.0,36.0,29.69,SW,217,3.0,9.0,91,0.02,,,0.02,,2013-11-23 07:42:00,
2013-11-23 02:52:00,38.0,36.0,29.68,SW,228,3.0,6.0,92,0.02,,,0.02,,2013-11-23 07:52:00,
2013-11-23 03:21:00,38.0,36.0,29.66,SW,229,4.0,7.0,93,0.01,,,0.02,,2013-11-23 08:21:00,
2013-11-23 03:42:00,39.0,37.0,29.66,SW,225,2.0,5.0,93,0.00,,,0.02,,2013-11-23 08:42:00,
2013-11-23 03:52:00,39.0,37.0,29.65,WSW,237,1.0,4.0,94,0.00,,,0.02,,2013-11-23 08:52:00,
2013-11-23 04:22:00,40.0,38.0,29.64,SW,219,5.0,14.0,94,0.00,,,0.02,,2013-11-23 09:22:00,
2013-11-23 04:43:00,40.0,38.0,29.64,West,265,8.0,15.0,94,0.01,,,0.03,,2013-11-23 09:43:00,
2013-11-23 04:54:00,40.0,38.0,29.64,West,276,9.0,20.0,94,0.01,,,0.03,,2013-11-23 09:54:00,
2013-11-23 05:23:00,39.0,37.0,29.63,WSW,250,14.0,24.0,93,0.01,,,0.03,,2013-11-23 10:23:00,
2013-11-23 05:52:00,39.0,35.0,29.63,WNW,286,16.0,28.0,87,0.00,,,0.03,,2013-11-23 10:52:00,
2013-11-23 06:23:00,38.0,34.0,29.64,West,278,14.0,28.0,84,0.00,,,0.03,,2013-11-23 11:23:00,
2013-11-23 06:43:00,37.0,32.0,29.65,WNW,284,13.0,26.0,83,0.00,,,0.03,,2013-11-23 11:43:00,
2013-11-23 06:53:00,37.0,32.0,29.65,West,281,13.0,27.0,82,0.00,,,0.03,,2013-11-23 11:53:00,
2013-11-23 07:22:00,37.0,30.0,29.65,WNW,300,15.0,28.0,76,0.00,,,0.03,,2013-11-23 12:22:00,
2013-11-23 07:42:00,37.0,29.0,29.66,NW,309,14.0,26.0,74,0.00,,,0.03,,2013-11-23 12:42:00,
2013-11-23 07:52:00,36.0,28.0,29.66,West,279,18.0,30.0,73,0.00,,,0.03,,2013-11-23 12:52:00,
2013-11-23 08:11:00,37.0,28.0,29.66,West,259,17.0,30.0,71,0.00,,,0.03,,2013-11-23 13:11:00,
2013-11-23 08:22:00,37.0,27.0,29.67,NW,322,18.0,30.0,68,0.00,,,0.03,,2013-11-23 13:22:00,
2013-11-23 08:42:00,37.0,26.0,29.67,West,270,17.0,36.0,64,0.00,,,0.03,,2013-11-23 13:42:00,
2013-11-23 08:52:00,37.0,26.0,29.66,West,270,19.0,30.0,64,0.00,,,0.03,,2013-11-23 13:52:00,
2013-11-23 09:22:00,38.0,25.0,29.67,NW,315,23.0,33.0,59,0.00,,,0.03,,2013-11-23 14:22:00,
2013-11-23 09:42:00,38.0,25.0,29.68,WNW,298,21.0,31.0,58,0.00,,,0.03,,2013-11-23 14:42:00,
2013-11-23 09:52:00,38.0,24.0,29.68,WNW,296,17.0,33.0,56,0.00,,,0.03,,2013-11-23 14:52:00,
2013-11-23 10:22:00,38.0,23.0,29.68,WSW,258,10.0,31.0,54,0.00,,,0.03,,2013-11-23 15:22:00,
2013-11-23 10:43:00,39.0,23.0,29.69,West,271,14.0,29.0,52,0.00,,,0.03,,2013-11-23 15:43:00,
2013-11-23 11:23:00,39.0,21.0,29.69,West,262,16.0,31.0,49,0.00,,,0.03,,2013-11-23 16:23:00,
2013-11-23 11:53:00,40.0,20.0,29.69,WNW,284,13.0,26.0,45,0.00,,,0.03,,2013-11-23 16:53:00,
2013-11-23 12:22:00,39.0,18.0,29.68,WNW,284,17.0,28.0,43,0.00,,,0.03,,2013-11-23 17:22:00,
2013-11-23 12:42:00,39.0,18.0,29.68,WNW,288,15.0,26.0,43,0.00,,,0.03,,2013-11-23 17:42:00,
2013-11-23 12:52:00,39.0,17.0,29.67,West,274,14.0,29.0,40,0.00,,,0.03,,2013-11-23 17:52:00,
2013-11-23 13:12:00,40.0,18.0,29.67,West,277,13.0,26.0,41,0.00,,,0.03,,2013-11-23 18:12:00,
2013-11-23 13:22:00,40.0,18.0,29.67,West,277,13.0,26.0,41,0.00,,,0.03,,2013-11-23 18:22:00,
2013-11-23 13:42:00,39.0,16.0,29.66,NW,306,10.0,25.0,39,0.00,,,0.03,,2013-11-23 18:42:00,
2013-11-23 13:52:00,39.0,15.0,29.66,WNW,287,12.0,24.0,37,0.00,,,0.03,,2013-11-23 18:52:00,
2013-11-23 14:22:00,38.0,15.0,29.66,NW,318,13.0,27.0,39,0.00,,,0.03,,2013-11-23 19:22:00,
2013-11-23 14:42:00,38.0,16.0,29.66,WNW,294,11.0,27.0,41,0.00,,,0.03,,2013-11-23 19:42:00,
2013-11-23 14:52:00,38.0,16.0,29.66,West,280,16.0,25.0,40,0.00,,,0.03,,2013-11-23 19:52:00,
2013-11-23 15:22:00,37.0,16.0,29.67,West,265,11.0,24.0,41,0.00,,,0.03,,2013-11-23 20:22:00,
2013-11-23 15:42:00,36.0,15.0,29.66,West,272,15.0,29.0,41,0.00,,,0.03,,2013-11-23 20:42:00,
2013-11-23 15:53:00,35.0,14.0,29.66,West,279,10.0,23.0,41,0.00,,,0.03,,2013-11-23 20:53:00,
2013-11-23 16:22:00,34.0,12.0,29.67,NNW,344,9.0,22.0,40,0.00,,,0.03,,2013-11-23 21:22:00,
2013-11-23 16:43:00,34.0,13.0,29.66,West,267,7.0,19.0,41,0.00,,,0.03,,2013-11-23 21:43:00,
2013-11-23 16:53:00,33.0,13.0,29.67,West,267,10.0,19.0,44,0.00,,,0.03,,2013-11-23 21:53:00,
2013-11-23 17:13:00,33.0,15.0,29.67,WNW,287,12.0,20.0,46,0.00,,,0.03,,2013-11-23 22:13:00,
2013-11-23 17:23:00,33.0,15.0,29.68,WNW,294,11.0,20.0,48,0.00,,,0.03,,2013-11-23 22:23:00,
2013-11-23 17:43:00,32.0,15.0,29.68,West,281,10.0,25.0,50,0.00,,,0.03,,2013-11-23 22:43:00,
2013-11-23 17:53:00,33.0,16.0,29.68,WNW,285,8.0,23.0,49,0.00,,,0.03,,2013-11-23 22:53:00,
2013-11-23 18:12:00,32.0,15.0,29.68,West,279,15.0,26.0,48,0.00,,,0.03,,2013-11-23 23:12:00,
2013-11-23 18:22:00,32.0,15.0,29.68,West,279,15.0,26.0,48,0.00,,,0.03,,2013-11-23 23:22:00,
2013-11-23 18:42:00,32.0,15.0,29.68,WNW,284,16.0,24.0,48,0.00,,,0.03,,2013-11-23 23:42:00,
2013-11-23 18:53:00,32.0,15.0,29.67,WSW,255,15.0,23.0,49,0.00,,,0.03,,2013-11-23 23:53:00,
2013-11-23 19:11:00,32.0,14.0,29.67,NW,314,14.0,30.0,46,0.00,,,0.03,,2013-11-24 00:11:00,
2013-11-23 19:21:00,32.0,15.0,29.67,West,271,14.0,29.0,48,0.00,,,0.03,,2013-11-24 00:21:00,
2013-11-23 19:42:00,32.0,15.0,29.67,WNW,292,11.0,28.0,49,0.00,,,0.03,,2013-11-24 00:42:00,
2013-11-23 19:52:00,31.0,15.0,29.66,West,264,15.0,23.0,51,0.00,,,0.03,,2013-11-24 00:52:00,
2013-11-23 20:11:00,31.0,15.0,29.66,WSW,257,12.0,19.0,51,0.00,,,0.03,,2013-11-24 01:11:00,
2013-11-23 20:22:00,31.0,14.0,29.66,WNW,302,14.0,28.0,49,0.00,,,0.03,,2013-11-24 01:22:00,
2013-11-23 20:42:00,31.0,15.0,29.65,WNW,286,15.0,24.0,50,0.00,,,0.03,,2013-11-24 01:42:00,
2013-11-23 20:53:00,31.0,15.0,29.65,West,259,10.0,22.0,51,0.00,,,0.03,,2013-11-24 01:53:00,
2013-11-23 21:12:00,31.0,15.0,29.65,NW,305,14.0,24.0,50,0.00,,,0.03,,2013-11-24 02:12:00,
2013-11-23 21:22:00,30.0,15.0,29.64,WNW,292,7.0,18.0,52,0.00,,,0.03,,2013-11-24 02:22:00,
2013-11-23 21:42:00,29.0,14.0,29.64,WNW,289,9.0,15.0,54,0.00,,,0.03,,2013-11-24 02:42:00,
2013-11-23 21:52:00,29.0,14.0,29.64,WNW,288,9.0,16.0,54,0.00,,,0.03,,2013-11-24 02:52:00,
2013-11-23 22:02:00,29.0,14.0,29.64,WNW,288,9.0,16.0,54,0.00,,,0.03,,2013-11-24 03:02:00,
2013-11-23 22:22:00,29.0,15.0,29.63,West,273,7.0,13.0,56,0.00,,,0.03,,2013-11-24 03:22:00,
2013-11-23 22:43:00,29.0,16.0,29.63,West,275,9.0,17.0,58,0.00,,,0.03,,2013-11-24 03:43:00,
2013-11-23 22:54:00,30.0,17.0,29.63,WNW,292,10.0,21.0,58,0.00,,,0.03,,2013-11-24 03:54:00,
2013-11-23 23:02:00,-999.0,-99.9,29.62,West,269,12.0,20.0,-999,0.00,,,0.03,,2013-11-24 04:02:00,
2013-11-23 23:23:00,30.0,17.0,29.61,WSW,257,13.0,21.0,57,0.00,,,0.03,,2013-11-24 04:23:00,
2013-11-23 23:53:00,29.0,16.0,29.60,NW,306,8.0,16.0,59,0.00,,,0.03,,2013-11-24 04:53:00,